| time (UTC) | temp F | wind direction | speed MPH | gust MPH | rain 1hr in | rain 24hr in | rain mn in | humidity % | barometer mb |
| 20260510181553 | 70 | 286 | 0.0 | 6.0 | 0.00 | 0.20 | 0.01 | 65 | 1011.5 |
| 20260510180054 | 68 | 0 | 0.0 | 4.0 | 0.01 | 0.20 | 0.01 | 62 | 1011.6 |
| 20260510174555 | 68 | 286 | 0.0 | 4.0 | 0.01 | 0.25 | 0.01 | 55 | 1011.6 |
| 20260510173056 | 66 | 0 | 1.0 | 3.0 | 0.01 | 0.25 | 0.01 | 47 | 1011.7 |
| 20260510171558 | 66 | 0 | 1.0 | 4.0 | 0.01 | 0.25 | 0.01 | 44 | 1011.8 |
| 20260510170050 | 65 | 0 | 1.0 | 5.0 | 0.00 | 0.24 | 0.00 | 42 | 1011.9 |
| 20260510164555 | 65 | 0 | 0.0 | 8.0 | 0.00 | 0.30 | 0.00 | 44 | 1012.0 |
| 20260510163051 | 66 | 78 | 2.0 | 5.0 | 0.00 | 0.30 | 0.00 | 30 | 1012.0 |
| 20260510161554 | 65 | 78 | 0.0 | 4.0 | 0.00 | 0.30 | 0.00 | 13 | 1012.2 |
| 20260510160046 | 63 | 0 | 0.0 | 5.0 | 0.00 | 0.30 | 0.00 | 100 | 1012.2 |
| 20260510154555 | 61 | 78 | 0.0 | 4.0 | 0.00 | 0.34 | 0.00 | 100 | 1012.5 |
| 20260510153052 | 59 | 0 | 0.0 | 3.0 | 0.00 | 0.34 | 0.00 | 100 | 1012.8 |
| 20260510151552 | 58 | 78 | 0.0 | 3.0 | 0.00 | 0.34 | 0.00 | 100 | 1012.8 |
| 20260510150119 | 57 | 78 | 1.0 | 4.0 | 0.00 | 0.34 | 0.00 | 100 | 1012.6 |
| 20260510144613 | 57 | 78 | 0.0 | 3.0 | 0.00 | 0.37 | 0.00 | 100 | 1012.5 |
| 20260510143057 | 55 | 0 | 0.0 | 2.0 | 0.00 | 0.37 | 0.00 | 100 | 1012.8 |
| 20260510141553 | 54 | 0 | 1.0 | 5.0 | 0.00 | 0.37 | 0.00 | 100 | 1012.9 |
| 20260510140054 | 54 | 0 | 0.0 | 2.0 | 0.00 | 0.37 | 0.00 | 100 | 1012.8 |
| 20260510134607 | 53 | 0 | 0.0 | 4.0 | 0.00 | 0.39 | 0.00 | 100 | 1012.9 |
| 20260510133056 | 53 | 0 | 0.0 | 1.0 | 0.00 | 0.39 | 0.00 | 100 | 1012.7 |
| 20260510131601 | 52 | 0 | 0.0 | 3.0 | 0.00 | 0.39 | 0.00 | 100 | 1012.8 |
| 20260510130050 | 52 | 0 | 0.0 | 2.0 | 0.00 | 0.39 | 0.00 | 100 | 1012.8 |
| 20260510124550 | 52 | 0 | 0.0 | 2.0 | 0.00 | 0.40 | 0.00 | 100 | 1012.6 |
| 20260510123052 | 51 | 0 | 0.0 | 1.0 | 0.00 | 0.40 | 0.00 | 100 | 1012.5 |
| 20260510121547 | 51 | 0 | 0.0 | 0.0 | 0.00 | 0.40 | 0.00 | 100 | 1012.7 |
| 20260510120051 | 51 | 0 | 0.0 | 0.0 | 0.00 | 0.40 | 0.00 | 100 | 1012.7 |
| 20260510114608 | 51 | 0 | 0.0 | 1.0 | 0.00 | 0.43 | 0.00 | 100 | 1012.5 |
| 20260510113056 | 51 | 0 | 0.0 | 2.0 | 0.00 | 0.43 | 0.00 | 100 | 1012.7 |
| 20260510111552 | 51 | 0 | 0.0 | 1.0 | 0.00 | 0.43 | 0.00 | 100 | 1012.5 |
| 20260510110054 | 51 | 0 | 0.0 | 1.0 | 0.00 | 0.43 | 0.00 | 100 | 1012.2 |
| 20260510104557 | 50 | 0 | 0.0 | 2.0 | 0.00 | 0.46 | 0.00 | 100 | 1011.9 |
| 20260510103051 | 50 | 0 | 0.0 | 0.0 | 0.00 | 0.46 | 0.00 | 100 | 1012.0 |
| 20260510101552 | 50 | 0 | 0.0 | 0.0 | 0.00 | 0.46 | 0.00 | 100 | 1011.9 |
| 20260510094604 | 50 | 0 | 0.0 | 0.0 | 0.00 | 0.46 | 0.00 | 100 | 1011.3 |
| 20260510093053 | 50 | 0 | 0.0 | 0.0 | 0.00 | 0.46 | 0.00 | 100 | 1011.1 |
| 20260510091554 | 50 | 0 | 0.0 | 1.0 | 0.00 | 0.46 | 0.00 | 100 | 1010.9 |
| 20260510090049 | 50 | 0 | 0.0 | 0.0 | 0.00 | 0.46 | 0.00 | 100 | 1011.1 |
| 20260510084552 | 50 | 0 | 0.0 | 0.0 | 0.00 | 0.46 | 0.00 | 100 | 1011.5 |
| 20260510083049 | 50 | 0 | 0.0 | 0.0 | 0.00 | 0.46 | 0.00 | 100 | 1011.6 |
| 20260510081547 | 50 | 0 | 0.0 | 2.0 | 0.00 | 0.46 | 0.00 | 100 | 1011.5 |
| 20260510080054 | 50 | 0 | 0.0 | 1.0 | 0.00 | 0.46 | 0.00 | 100 | 1011.6 |
| 20260510074554 | 50 | 0 | 0.0 | 2.0 | 0.00 | 0.46 | 0.00 | 100 | 1011.5 |
| 20260510073049 | 50 | 0 | 0.0 | 2.0 | 0.00 | 0.46 | 0.00 | 100 | 1011.4 |
| 20260510071557 | 50 | 0 | 0.0 | 2.0 | 0.00 | 0.46 | 0.00 | 100 | 1011.1 |
| 20260510070109 | 50 | 0 | 0.0 | 1.0 | 0.00 | 0.46 | 0.00 | 100 | 1011.1 |
| 20260510064600 | 50 | 0 | 0.0 | 1.0 | 0.00 | 0.46 | 0.00 | 100 | 1011.0 |
| 20260510063100 | 50 | 0 | 0.0 | 1.0 | 0.00 | 0.46 | 0.00 | 100 | 1011.0 |
| 20260510061551 | 50 | 0 | 0.0 | 0.0 | 0.00 | 0.46 | 0.00 | 100 | 1011.1 |
| 20260510060054 | 49 | 0 | 0.0 | 2.0 | 0.00 | 0.46 | 0.00 | 100 | 1011.3 |
| 20260510054554 | 49 | 0 | 0.0 | 2.0 | 0.00 | 0.46 | 0.00 | 100 | 1011.3 |
| 20260510053048 | 49 | 0 | 0.0 | 0.0 | 0.00 | 0.46 | 0.00 | 100 | 1011.4 |
| 20260510051551 | 49 | 0 | 0.0 | 0.0 | 0.00 | 0.46 | 0.00 | 100 | 1011.0 |
| 20260510050058 | 49 | 0 | 0.0 | 0.0 | 0.00 | 0.46 | 0.00 | 100 | 1011.2 |
| 20260510044557 | 49 | 0 | 0.0 | 0.0 | 0.00 | 0.46 | 0.00 | 100 | 1011.3 |
| 20260510043050 | 49 | 0 | 0.0 | 0.0 | 0.00 | 0.46 | 0.00 | 100 | 1011.3 |
| 20260510041557 | 49 | 0 | 0.0 | 0.0 | 0.00 | 0.46 | 0.00 | 100 | 1011.4 |
| 20260510040049 | 49 | 0 | 0.0 | 0.0 | 0.00 | 0.46 | 0.00 | 100 | 1011.5 |
| 20260510034549 | 48 | 0 | 0.0 | 2.0 | 0.00 | 0.46 | 0.46 | 100 | 1011.6 |
| 20260510033107 | 48 | 0 | 0.0 | 0.0 | 0.00 | 0.46 | 0.46 | 100 | 1011.4 |
| 20260510031604 | 48 | 0 | 0.0 | 1.0 | 0.00 | 0.46 | 0.46 | 100 | 1011.4 |
| 20260510030049 | 48 | 0 | 0.0 | 0.0 | 0.00 | 0.46 | 0.46 | 100 | 1011.6 |
| 20260510024547 | 48 | 0 | 0.0 | 0.0 | 0.00 | 0.46 | 0.46 | 100 | 1011.4 |
| 20260510023052 | 48 | 0 | 0.0 | 2.0 | 0.00 | 0.46 | 0.46 | 100 | 1011.3 |
| 20260510021552 | 48 | 0 | 0.0 | 0.0 | 0.00 | 0.46 | 0.46 | 100 | 1011.6 |
| 20260510020051 | 48 | 0 | 0.0 | 0.0 | 0.00 | 0.46 | 0.46 | 100 | 1011.9 |
| 20260510014602 | 48 | 0 | 0.0 | 0.0 | 0.00 | 0.46 | 0.46 | 100 | 1012.1 |
| 20260510013048 | 48 | 0 | 0.0 | 0.0 | 0.00 | 0.46 | 0.46 | 100 | 1012.0 |
| 20260510011549 | 49 | 0 | 0.0 | 0.0 | 0.00 | 0.46 | 0.46 | 100 | 1011.9 |
| 20260510010100 | 49 | 0 | 0.0 | 0.0 | 0.00 | 0.46 | 0.46 | 100 | 1011.6 |
| 20260510004556 | 49 | 0 | 0.0 | 1.0 | 0.00 | 0.46 | 0.46 | 100 | 1011.4 |
| 20260510003058 | 48 | 0 | 0.0 | 1.0 | 0.00 | 0.46 | 0.46 | 100 | 1011.2 |
| 20260510001550 | 48 | 0 | 0.0 | 1.0 | 0.00 | 0.46 | 0.46 | 100 | 1011.1 |
| 20260510000053 | 48 | 0 | 0.0 | 0.0 | 0.00 | 0.46 | 0.46 | 100 | 1011.4 |
| 20260509234605 | 48 | 78 | 0.0 | 0.0 | 0.00 | 0.46 | 0.46 | 100 | 1011.5 |
| 20260509233049 | 48 | 0 | 0.0 | 1.0 | 0.00 | 0.46 | 0.46 | 100 | 1011.4 |
| 20260509231552 | 48 | 0 | 0.0 | 0.0 | 0.00 | 0.46 | 0.46 | 100 | 1011.5 |
| 20260509230047 | 47 | 0 | 0.0 | 0.0 | 0.00 | 0.46 | 0.46 | 100 | 1011.3 |
| 20260509224547 | 47 | 0 | 0.0 | 2.0 | 0.00 | 0.46 | 0.46 | 100 | 1011.2 |
| 20260509223057 | 47 | 0 | 0.0 | 2.0 | 0.00 | 0.46 | 0.46 | 100 | 1011.1 |
| 20260509221554 | 47 | 0 | 0.0 | 0.0 | 0.02 | 0.46 | 0.46 | 100 | 1011.0 |
| 20260509220059 | 47 | 0 | 0.0 | 1.0 | 0.04 | 0.46 | 0.46 | 100 | 1011.2 |
| 20260509214552 | 47 | 0 | 0.0 | 0.0 | 0.06 | 0.46 | 0.46 | 100 | 1011.3 |
| 20260509213050 | 47 | 0 | 0.0 | 3.0 | 0.08 | 0.46 | 0.46 | 100 | 1011.4 |
| 20260509211550 | 46 | 0 | 0.0 | 3.0 | 0.07 | 0.44 | 0.44 | 100 | 1011.7 |
| 20260509210047 | 47 | 0 | 0.0 | 0.0 | 0.06 | 0.42 | 0.42 | 100 | 1012.0 |
| 20260509204558 | 46 | 0 | 0.0 | 0.0 | 0.04 | 0.39 | 0.39 | 100 | 1012.1 |
| 20260509203049 | 46 | 0 | 0.0 | 0.0 | 0.04 | 0.38 | 0.38 | 100 | 1012.3 |
| 20260509201551 | 46 | 0 | 0.0 | 0.0 | 0.05 | 0.37 | 0.37 | 100 | 1012.3 |
| 20260509200049 | 46 | 0 | 0.0 | 1.0 | 0.06 | 0.36 | 0.36 | 100 | 1012.4 |
| 20260509194556 | 46 | 0 | 0.0 | 0.0 | 0.05 | 0.35 | 0.35 | 100 | 1012.3 |
| 20260509193055 | 46 | 0 | 0.0 | 2.0 | 0.05 | 0.34 | 0.34 | 100 | 1012.3 |
| 20260509191555 | 46 | 0 | 0.0 | 1.0 | 0.04 | 0.32 | 0.32 | 100 | 1012.6 |
| 20260509190056 | 46 | 0 | 0.0 | 1.0 | 0.03 | 0.30 | 0.30 | 100 | 1012.5 |
| 20260509184547 | 46 | 0 | 0.0 | 1.0 | 0.04 | 0.30 | 0.30 | 100 | 1012.5 |
| 20260509183049 | 45 | 0 | 0.0 | 0.0 | 0.05 | 0.29 | 0.29 | 100 | 1012.7 |